Location: Gleizolles
(44.4833°N, 6.7667°E)
Time: 13:11:03
(UTC+00:00)

A-11 Canister half - Pass Details

Date: 17 June 2024
Orbit: 1515 x 1684 km, 47.2° (Epoch: 24 July)

Event Time Altitude Azimuth Distance (km) Brightness Sun altitude
Rises 01:30:41 0° 294° (WNW) 4,812 11.6 -17.1°
Reaches altitude 10° 01:34:04 10° 287° (WNW) 3,800 10.9 -16.8°
Maximum altitude 01:42:42 40° 223° (SW) 2,163 9.3 -16.0°
Drops below altitude 10° 01:51:05 10° 158° (SSE) 3,684 10.7 -15.2°
Sets 01:54:19 0° 151° (SSE) 4,653 11.3 -14.9°
